AK4NG Weather Reports


Display with metric or nautical units.
time (UTC)temp
F
wind
direction
speed
MPH
gust
MPH
rain 1hr
in
rain 24hr
in
rain mn
in
humidity
%
barometer
mb
20260504173323 77 200 2.0 2.0 0.00 0.00 0.00 33 1017.7
20260504172820 77 99 2.0 2.0 0.00 0.00 0.00 33 1017.9
20260504172317 77 267 3.0 4.0 0.00 0.00 0.00 35 1018.1
20260504171813 77 157 4.0 6.0 0.00 0.00 0.00 35 1017.9
20260504171310 77 28 3.0 3.0 0.00 0.00 0.00 35 1018.1
20260504170807 76 14 4.0 6.0 0.00 0.00 0.00 36 1018.1
20260504170304 77 170 2.0 3.0 0.00 0.00 0.00 36 1017.9
20260504160222 73 292 2.0 3.0 0.00 0.00 0.00 39 1018.7
20260504150647 72 137 3.0 3.0 0.00 0.00 0.00 43 1019.0
20260504150144 72 126 5.0 6.0 0.00 0.00 0.00 46 1018.9
20260504141113 69 222 2.0 2.0 0.00 0.00 0.00 51 1019.0
20260504140610 69 264 2.0 2.0 0.00 0.00 0.00 52 1019.4
20260504140105 68 96 1.0 2.0 0.00 0.00 0.00 53 1019.3
20260504130534 63 149 2.0 2.0 0.00 0.00 0.00 57 1019.0
20260504110421 49 107 1.0 1.0 0.00 0.00 0.00 84 1018.3
20260504100338 50 86 0.0 1.0 0.00 0.00 0.00 86 1018.3
20260504081731 48 270 0.0 0.0 0.00 0.00 0.00 90 1018.5
20260504081228 48 270 0.0 0.0 0.00 0.00 0.00 90 1018.4
20260504080724 48 270 0.0 0.0 0.00 0.00 0.00 89 1018.6
20260504080221 48 270 0.0 0.0 0.00 0.00 0.00 89 1018.7
20260504070148 50 270 0.0 0.0 0.00 0.00 0.00 83 1018.9
20260504060109 50 271 0.0 0.0 0.00 0.00 0.00 84 1019.4
20260504050537 52 270 0.0 0.0 0.00 0.00 0.00 77 1019.5
20260504045531 53 270 0.0 0.0 0.00 0.00 0.00 78 1020.0
20260504045026 53 270 0.0 0.0 0.00 0.00 0.00 80 1020.0
20260504044524 53 270 0.0 0.0 0.00 0.00 0.00 81 1020.0
20260504044021 53 270 0.0 0.0 0.00 0.00 0.00 79 1019.9
20260504043518 53 271 0.0 0.0 0.00 0.00 0.00 82 1019.8
20260504043015 53 271 0.0 0.0 0.00 0.00 0.00 80 1020.0
20260504042512 53 271 0.0 0.0 0.00 0.00 0.00 79 1020.1
20260504042009 54 271 0.0 0.0 0.00 0.00 0.00 79 1020.1
20260504041505 54 271 0.0 0.0 0.00 0.00 0.00 78 1020.1
20260504041001 54 271 0.0 0.0 0.00 0.00 0.00 80 1020.3
20260504040459 54 271 0.0 0.0 0.00 0.00 0.00 79 1020.0
20260504035954 54 271 0.0 0.0 0.00 0.00 0.00 79 1020.0
20260504035452 54 271 0.0 0.0 0.00 0.00 0.00 79 1020.0
20260504034948 54 271 0.0 0.0 0.00 0.00 0.00 79 1019.9
20260504034446 54 270 0.0 0.0 0.00 0.00 0.00 76 1019.7
20260504033943 54 270 0.0 0.0 0.00 0.00 0.00 76 1019.9
20260504033441 54 271 0.0 0.0 0.00 0.00 0.00 77 1020.0
20260504032938 54 271 0.0 0.0 0.00 0.00 0.00 78 1019.9
20260504032434 55 271 0.0 0.0 0.00 0.00 0.00 78 1019.9
20260504031931 54 271 0.0 0.0 0.00 0.00 0.00 78 1019.9
20260504031428 54 271 0.0 0.0 0.00 0.00 0.00 77 1020.0
20260504030925 54 271 0.0 0.0 0.00 0.00 0.00 78 1019.8
20260504030422 55 271 0.0 0.0 0.00 0.00 0.00 77 1019.5
20260504025918 55 271 0.0 0.0 0.00 0.00 0.00 77 1019.7
20260504025415 55 271 0.0 0.0 0.00 0.00 0.00 76 1019.7
20260504024912 55 271 0.0 0.0 0.00 0.00 0.00 72 1019.6
20260504024409 55 271 0.0 0.0 0.00 0.00 0.00 68 1019.7
20260504023906 55 271 0.0 0.0 0.00 0.00 0.00 71 1019.8
20260504023402 55 271 0.0 0.0 0.00 0.00 0.00 72 1019.8
20260504022857 55 270 0.0 0.0 0.00 0.00 0.00 72 1019.7
20260504022355 55 270 0.0 0.0 0.00 0.00 0.00 77 1019.6
20260504021851 55 270 0.0 0.0 0.00 0.00 0.00 73 1019.7
20260504021348 55 270 0.0 0.0 0.00 0.00 0.00 73 1019.4
20260504020846 56 270 0.0 0.0 0.00 0.00 0.00 68 1019.4
20260504020342 56 270 0.0 0.0 0.00 0.00 0.00 71 1019.4
20260504015838 56 270 0.0 0.0 0.00 0.00 0.00 75 1019.3
20260504015335 56 270 0.0 0.0 0.00 0.00 0.00 75 1019.5
20260504014831 57 270 0.0 0.0 0.00 0.00 0.00 73 1019.4
20260504014327 57 270 0.0 0.0 0.00 0.00 0.00 73 1019.1
20260504013825 57 270 0.0 0.0 0.00 0.00 0.00 73 1019.2
20260504013322 58 270 0.0 0.0 0.00 0.00 0.00 71 1019.3
20260504012819 58 270 0.0 0.0 0.00 0.00 0.00 71 1019.1
20260504012317 58 270 0.0 0.0 0.00 0.00 0.00 66 1019.0
20260504011814 58 270 0.0 0.0 0.00 0.00 0.00 67 1018.9
20260504011310 58 270 0.0 0.0 0.00 0.00 0.00 68 1019.1
20260504010806 59 270 0.0 0.0 0.00 0.00 0.00 68 1019.0
20260504010302 59 270 0.0 0.0 0.00 0.00 0.00 66 1018.9
20260504005759 59 270 0.0 0.0 0.00 0.00 0.00 68 1018.9
20260504005256 59 270 0.0 0.0 0.00 0.00 0.00 69 1018.9
20260504004753 60 270 0.0 0.0 0.00 0.00 0.00 65 1018.7
20260504004251 60 270 0.0 0.0 0.00 0.00 0.00 64 1018.9
20260504003747 61 270 0.0 0.0 0.00 0.00 0.00 65 1018.6
20260504003244 61 270 0.0 0.0 0.00 0.00 0.00 61 1018.4
20260504002740 62 270 0.0 0.0 0.00 0.00 0.00 60 1018.6
20260504002237 62 270 0.0 0.0 0.00 0.00 0.00 56 1018.3
20260504001735 63 270 0.0 0.0 0.00 0.00 0.00 55 1018.3
20260504001232 64 270 0.0 0.0 0.00 0.00 0.00 53 1018.1
20260504000728 65 270 0.0 0.0 0.00 0.00 0.00 51 1018.4
20260504000226 67 270 0.0 0.0 0.00 0.00 0.00 47 1018.2
20260503235724 68 271 0.0 0.0 0.00 0.00 0.00 43 1018.3
20260503235221 69 271 0.0 0.0 0.00 0.00 0.00 43 1018.3
20260503234719 70 271 0.0 0.0 0.00 0.00 0.00 42 1018.6
20260503234216 71 271 0.0 0.0 0.00 0.00 0.00 38 1018.4
20260503233713 71 270 1.0 1.0 0.00 0.00 0.00 37 1018.1
20260503233209 71 342 0.0 0.0 0.00 0.00 0.00 38 1018.5
20260503232706 71 273 1.0 1.0 0.00 0.00 0.00 35 1018.5
20260503232203 71 287 2.0 3.0 0.00 0.00 0.00 35 1018.4
20260503231701 71 296 4.0 4.0 0.00 0.00 0.00 34 1018.3
20260503231157 72 330 4.0 4.0 0.00 0.00 0.00 32 1018.5
20260503230654 72 246 3.0 3.0 0.00 0.00 0.00 32 1018.6
20260503230151 72 255 3.0 3.0 0.00 0.00 0.00 33 1018.5
20260503225648 73 290 4.0 4.0 0.00 0.00 0.00 32 1018.6
20260503225148 73 12 3.0 3.0 0.00 0.00 0.00 35 1018.5
20260503224646 73 324 0.0 0.0 0.00 0.00 0.00 34 1018.4
20260503224144 74 277 4.0 4.0 0.00 0.00 0.00 32 1018.5
20260503223641 74 260 3.0 3.0 0.00 0.00 0.00 31 1018.4
20260503223138 73 304 1.0 1.0 0.00 0.00 0.00 30 1018.3
20260503222635 73 7 3.0 4.0 0.00 0.00 0.00 35 1018.5
20260503222132 73 26 3.0 3.0 0.00 0.00 0.00 32 1018.6
20260503221631 73 319 2.0 2.0 0.00 0.00 0.00 34 1018.6
20260503221128 73 288 2.0 4.0 0.00 0.00 0.00 34 1018.7
20260503220624 74 289 4.0 4.0 0.00 0.00 0.00 29 1018.6
20260503220121 73 38 4.0 4.0 0.00 0.00 0.00 31 1018.5
20260503215618 74 256 2.0 3.0 0.00 0.00 0.00 32 1018.8
20260503215115 74 252 1.0 2.0 0.00 0.00 0.00 31 1018.5
20260503214614 73 46 2.0 3.0 0.00 0.00 0.00 34 1018.7
20260503214109 74 198 6.0 8.0 0.00 0.00 0.00 30 1018.7
20260503213608 73 344 2.0 2.0 0.00 0.00 0.00 33 1018.7
20260503213104 73 258 0.0 1.0 0.00 0.00 0.00 32 1018.8
20260503212601 73 309 6.0 8.0 0.00 0.00 0.00 29 1018.8
20260503212059 74 280 7.0 8.0 0.00 0.00 0.00 30 1018.8
20260503211556 75 285 3.0 4.0 0.00 0.00 0.00 30 1018.7
20260503211051 74 284 2.0 2.0 0.00 0.00 0.00 31 1018.9
20260503210548 74 281 4.0 4.0 0.00 0.00 0.00 31 1019.0
20260503210044 73 208 2.0 2.0 0.00 0.00 0.00 31 1018.9
20260503205541 73 237 4.0 4.0 0.00 0.00 0.00 31 1018.9
20260503205037 74 232 5.0 7.0 0.00 0.00 0.00 30 1019.1
20260503204534 74 25 3.0 3.0 0.00 0.00 0.00 32 1019.0
20260503204031 73 292 1.0 1.0 0.00 0.00 0.00 30 1019.2
20260503203529 74 243 5.0 6.0 0.00 0.00 0.00 29 1019.5
20260503203026 73 40 2.0 2.0 0.00 0.00 0.00 31 1019.6
20260503202523 73 272 6.0 7.0 0.00 0.00 0.00 30 1019.7
20260503202021 74 300 6.0 8.0 0.00 0.00 0.00 31 1019.8
20260503201519 74 252 6.0 8.0 0.00 0.00 0.00 30 1019.7
20260503201016 74 334 3.0 3.0 0.00 0.00 0.00 31 1019.8
20260503200512 74 267 2.0 3.0 0.00 0.00 0.00 32 1019.7
20260503200009 73 62 1.0 1.0 0.00 0.00 0.00 31 1020.0
20260503195506 74 52 2.0 3.0 0.00 0.00 0.00 33 1020.1
20260503195003 74 251 4.0 4.0 0.00 0.00 0.00 32 1020.2
20260503194500 73 320 1.0 1.0 0.00 0.00 0.00 36 1020.2
20260503193955 73 301 0.0 1.0 0.00 0.00 0.00 33 1020.3
20260503193451 73 277 2.0 2.0 0.00 0.00 0.00 34 1020.4
20260503192947 73 278 4.0 7.0 0.00 0.00 0.00 33 1020.3
20260503192443 73 274 6.0 7.0 0.00 0.00 0.00 35 1020.4
20260503191939 72 297 3.0 4.0 0.00 0.00 0.00 32 1020.5
20260503191437 73 246 8.0 10.0 0.00 0.00 0.00 31 1020.5
20260503190932 73 305 2.0 3.0 0.00 0.00 0.00 36 1020.7
20260503190430 73 280 4.0 6.0 0.00 0.00 0.00 34 1020.8
20260503185927 73 249 6.0 6.0 0.00 0.00 0.00 32 1020.6
20260503185423 72 60 3.0 3.0 0.00 0.00 0.00 35 1020.7
20260503184923 72 275 1.0 2.0 0.00 0.00 0.00 36 1020.9
20260503184420 72 277 4.0 7.0 0.00 0.00 0.00 34 1020.7
20260503183916 72 251 2.0 2.0 0.00 0.00 0.00 34 1020.9
20260503183412 72 29 3.0 3.0 0.00 0.00 0.00 37 1021.0
20260503182910 72 263 3.0 3.0 0.00 0.00 0.00 36 1020.9
20260503182409 71 105 3.0 4.0 0.00 0.00 0.00 37 1020.7
20260503181905 71 286 4.0 6.0 0.00 0.00 0.00 38 1020.8
20260503181402 72 235 1.0 1.0 0.00 0.00 0.00 35 1020.9
20260503180859 71 249 4.0 7.0 0.00 0.00 0.00 35 1020.9
20260503180357 71 301 7.0 7.0 0.00 0.00 0.00 36 1021.0
20260503175853 71 242 2.0 2.0 0.00 0.00 0.00 32 1021.4
20260503175351 71 113 4.0 6.0 0.00 0.00 0.00 35 1021.4
20260503174846 72 53 2.0 3.0 0.00 0.00 0.00 34 1021.5
20260503174345 72 94 0.0 1.0 0.00 0.00 0.00 37 1021.5
20260503173845 71 322 1.0 1.0 0.00 0.00 0.00 34 1021.8